Location: Quedlinburg
(51.7921°N, 11.1414°E)
Time: 08:42:59
(UTC+02:00)

SO-50 - Pass Details

Date: 15 March 2026
Orbit: 567 x 673 km, 64.6° (Epoch: 13 April)

Event Time Altitude Azimuth Distance (km) Brightness Sun altitude
Rises 22:40:38 0° 301° (WNW) 3,010 ? -35.6°
Reaches altitude 10° 22:43:39 10° 321° (NW) 2,107 ? -35.8°
Enters shadow 22:46:47 18° 2° (N) 1,647 ? -36.1°
